Other Surface Observations
Issued by NWS Charleston, SC

Home | Current Version | Previous Version | Text Only | Print | Product List | Glossary On
Versions: 1 2 3 4 5 6 7 8 9 10 11 12 13 14 15 16 17 18 19 20 21 22 23 24 25 26 27 28 29 30 31 32 33 34 35 36 37 38 39 40 41 42 43 44 45 46 47 48 49 50
129
SXUS52 KCHS 010428
OSOCHS

MARINE OBSERVATIONS
NATIONAL WEATHER SERVICE CHARLESTON SC
1200 AM EDT THU SEP 01 2016

...DOWNTOWN CHARLESTON AND HARBOR...

CITY           SKY/WX    TMP DP  RH WIND       PRES   REMARKS
WATERFRONT PRK   N/A     78  75  90 N7        29.88R

...LAKE MOULTRIE...

CITY           SKY/WX    TMP DP  RH WIND       PRES   REMARKS
PINOPOLIS        N/A     79  75  89 NE6       29.84F

...LAKE AND SUPPLEMENTAL COASTAL OBSERVATIONS...

STATION/POSITION TIME  TEMP    WIND        PRES    WAVE   SWELL
                       AIR SEA DIR/SP/G            HT/PER HT/PER/DIR
                 (UTC) (F)     (DEG/KT/KT) (MB)    (FT/S) (FT/S/D)
FORT PULASKI     0400   79 84  340/  3/  4 1013.5R
SAPELO ISLAND    0400   77     250/  7     1013.0S
WINYAH BAY       0345   80      90/  8     1012.0S
LAKE MURRAY      0400   77     100/  4/  7 1013.2R
ACE BASIN NERRS  0315   77     330/  1     1013.0S


...C-MAN AND BUOY OBSERVATIONS...

STATION/POSITION TIME  TEMP    WIND        PRES    WAVE   SWELL
                       AIR SEA DIR/SP/G            HT/PER HT/PER/DIR
                 (UTC) (F)     (DEG/KT/KT) (MB)    (FT/S) (FT/S/D)
BUOY 41004       0350   80 85   50/ 10/ 12 1010.5F   4/11   3/100/11
BUOY 41008       0350   80 84  260/ 16/ 19 1012.7R   4/ 6   2/270/11
FOLLY BEACH CMAN 0400   78     350/  5/  9 1012.6R
CAPERS NS BUOY   0408   80 83   80/ 14/ 17 1011.8R
FRIPP NS BUOY    0408   81 85   20/ 10/ 12 1012.1R
5E ST. MARYS GA  0401      84                N/A     3/11   2/100/11


STATION/POSITION TIME  TEMP    WIND        PRES    WAVE   SWELL
                       AIR SEA DIR/SP/G            HT/PER HT/PER/DIR
                 (UTC) (F)     (DEG/KT/KT) (MB)    (FT/S) (FT/S/D)
FRYING PAN BUOY  0400   79 84  120/ 14/ 16 1011.9F
BUOY 41025       0350   82 85  190/  6/  8 1013.4F   3/11   3/ 80/11
CAPE LOOKOUT NC  0400   80     160/  7/  8 1013.0F
BUOY 41002       0350   81 84  180/ 10/ 12 1014.7F   4/ 6   3/250/ 6
BUOY 41010       NOT AVBL
ST AUGUSTINE FL  0400   77 82  240/  3/  5 1014.9S

$$




USA.gov is the U.S. government's official web portal to all federal, state and local government web resources and services.